Archiv-/Tagesdaten

--Timestamp---	Temp	Chill	HIndex	Humid	Dewpt	 Wind 	HiWind	WindDir	Rain 	Barom	Solar	 ET  	 UV 
--------------	----	-----	------	-----	-----	------	------	-------	-----	-----	-----	-----	----
20100625 00:00	14.4	14.4	14.4	74	9.8	6	10	248	0.0	1016.4	0	0.025	0.0
20100625 00:05	14.3	14.3	14.3	75	9.9	3	6	248	0.0	1016.4	0	0.000	0.0
20100625 00:10	14.2	14.2	14.2	75	9.8	5	8	248	0.0	1016.4	0	0.000	0.0
20100625 00:15	14.1	14.1	14.1	75	9.7	6	10	248	0.0	1016.3	0	0.000	0.0
20100625 00:20	14.1	14.1	14.1	74	9.5	5	8	248	0.0	1016.3	0	0.000	0.0
20100625 00:25	14.0	14.0	14.0	75	9.6	5	10	248	0.0	1016.4	0	0.000	0.0
20100625 00:30	13.9	13.9	13.9	75	9.5	2	5	248	0.0	1016.3	0	0.000	0.0
20100625 00:35	13.8	13.8	13.8	75	9.5	5	8	248	0.0	1016.3	0	0.000	0.0
20100625 00:40	13.8	13.8	13.8	75	9.4	5	10	248	0.0	1016.3	0	0.000	0.0
20100625 00:45	13.7	13.7	13.7	75	9.3	5	10	248	0.0	1016.3	0	0.000	0.0
20100625 00:50	13.6	13.6	13.6	75	9.3	6	10	248	0.0	1016.3	0	0.000	0.0
20100625 00:55	13.6	13.6	13.6	75	9.2	8	11	225	0.0	1016.3	0	0.000	0.0
20100625 01:00	13.5	13.5	13.5	75	9.2	6	10	225	0.0	1016.4	0	0.025	0.0
20100625 01:05	13.4	13.4	13.4	76	9.2	6	10	225	0.0	1016.2	0	0.000	0.0
20100625 01:10	13.3	13.3	13.3	76	9.2	6	10	202	0.0	1016.3	0	0.000	0.0
20100625 01:15	13.2	13.2	13.2	76	9.1	6	11	202	0.0	1016.3	0	0.000	0.0
20100625 01:20	13.2	13.2	13.2	76	9.0	8	11	202	0.0	1016.2	0	0.000	0.0
20100625 01:25	13.0	13.0	13.0	76	8.9	8	13	202	0.0	1016.2	0	0.000	0.0
20100625 01:30	12.9	12.9	12.9	76	8.8	8	11	202	0.0	1016.3	0	0.000	0.0
20100625 01:35	12.8	12.8	12.8	77	8.8	6	11	202	0.0	1016.2	0	0.000	0.0
20100625 01:40	12.7	12.7	12.7	77	8.7	8	11	202	0.0	1016.2	0	0.000	0.0
20100625 01:45	12.5	12.5	12.5	78	8.8	6	11	202	0.0	1016.2	0	0.000	0.0
20100625 01:50	12.4	12.4	12.4	78	8.7	6	11	202	0.0	1016.1	0	0.000	0.0
20100625 01:55	12.3	12.3	12.3	78	8.6	6	10	202	0.0	1016.1	0	0.000	0.0
20100625 02:00	12.3	12.3	12.3	78	8.6	5	10	202	0.0	1016.1	0	0.025	0.0
20100625 02:05	12.3	12.3	12.3	78	8.6	6	10	202	0.0	1016.1	0	0.000	0.0
20100625 02:10	12.3	12.3	12.3	78	8.6	5	10	202	0.0	1016.0	0	0.000	0.0
20100625 02:15	12.3	12.3	12.3	78	8.6	5	10	202	0.0	1016.0	0	0.000	0.0
20100625 02:20	12.2	12.2	12.2	78	8.5	6	10	202	0.0	1016.0	0	0.000	0.0
20100625 02:25	12.2	12.2	12.2	78	8.4	6	10	202	0.0	1015.9	0	0.000	0.0
20100625 02:30	12.1	12.1	12.1	78	8.4	8	11	202	0.0	1016.0	0	0.000	0.0
20100625 02:35	12.0	12.0	12.0	79	8.5	8	11	202	0.0	1015.9	0	0.000	0.0
20100625 02:40	11.9	11.9	11.9	79	8.4	8	10	202	0.0	1015.9	0	0.000	0.0
20100625 02:45	11.9	11.9	11.9	79	8.4	8	10	202	0.0	1016.1	0	0.000	0.0
20100625 02:50	11.8	11.8	11.8	79	8.3	6	10	202	0.0	1016.0	0	0.000	0.0
20100625 02:55	11.7	11.7	11.7	79	8.2	8	11	202	0.0	1016.0	0	0.000	0.0
20100625 03:00	11.7	11.7	11.7	79	8.1	6	11	202	0.0	1016.0	0	0.025	0.0
20100625 03:05	11.6	11.6	11.6	80	8.3	6	11	202	0.0	1015.8	0	0.000	0.0
20100625 03:10	11.6	11.6	11.6	80	8.2	6	10	202	0.0	1015.9	0	0.000	0.0
20100625 03:15	11.5	11.5	11.5	80	8.2	6	10	202	0.0	1015.8	0	0.000	0.0
20100625 03:20	11.4	11.4	11.4	80	8.1	6	11	202	0.0	1015.8	0	0.000	0.0
20100625 03:25	11.4	11.4	11.4	80	8.1	6	11	202	0.0	1015.8	0	0.000	0.0
20100625 03:30	11.3	11.3	11.3	80	8.0	6	10	202	0.0	1015.8	0	0.000	0.0
20100625 03:35	11.3	11.3	11.3	81	8.1	5	10	202	0.0	1015.7	0	0.000	0.0
20100625 03:40	11.2	11.2	11.2	81	8.1	5	10	202	0.0	1015.7	0	0.000	0.0
20100625 03:45	11.2	11.2	11.2	81	8.0	5	10	202	0.0	1015.7	0	0.000	0.0
20100625 03:50	11.2	11.2	11.2	81	8.0	3	10	202	0.0	1015.7	0	0.000	0.0
20100625 03:55	11.1	11.1	11.1	81	8.0	5	8	202	0.0	1015.7	0	0.000	0.0
20100625 04:00	11.1	11.1	11.1	81	7.9	5	8	202	0.0	1015.7	0	0.025	0.0
20100625 04:05	11.0	11.0	11.0	81	7.9	3	8	202	0.0	1015.6	0	0.000	0.0
20100625 04:10	10.9	10.9	10.9	82	8.0	5	8	202	0.0	1015.6	0	0.000	0.0
20100625 04:15	10.9	10.9	10.9	82	7.9	5	8	202	0.0	1015.6	0	0.000	0.0
20100625 04:20	10.8	10.8	10.8	82	7.9	5	8	202	0.0	1015.5	0	0.000	0.0
20100625 04:25	10.8	10.8	10.8	82	7.9	5	8	202	0.0	1015.6	0	0.000	0.0
20100625 04:30	10.8	10.8	10.8	82	7.9	5	8	202	0.0	1015.5	0	0.000	0.0
20100625 04:35	10.8	10.8	10.8	82	7.8	5	8	202	0.0	1015.5	0	0.000	0.0
20100625 04:40	10.8	10.8	10.8	82	7.8	5	10	202	0.0	1015.6	0	0.000	0.0
20100625 04:45	10.8	10.8	10.8	82	7.8	6	10	202	0.0	1015.6	0	0.000	0.0
20100625 04:50	10.8	10.8	10.8	82	7.8	6	11	202	0.0	1015.6	0	0.000	0.0
20100625 04:55	10.8	10.8	10.8	82	7.8	6	10	202	0.0	1015.6	0	0.000	0.0
20100625 05:00	10.8	10.8	10.8	82	7.8	6	10	202	0.0	1015.6	0	0.025	0.0
20100625 05:05	10.8	10.8	10.8	82	7.9	6	11	202	0.0	1015.5	0	0.000	0.0
20100625 05:10	10.8	10.8	10.8	81	7.6	6	11	202	0.0	1015.5	0	0.000	0.0
20100625 05:15	10.8	10.8	10.8	81	7.6	6	11	202	0.0	1015.6	0	0.000	0.0
20100625 05:20	10.8	10.8	10.8	81	7.6	6	10	202	0.0	1015.6	0	0.000	0.0
20100625 05:25	10.7	10.7	10.7	81	7.6	5	10	202	0.0	1015.6	4	0.000	0.0
20100625 05:30	10.7	10.7	10.7	82	7.7	5	8	202	0.0	1015.6	6	0.000	0.0
20100625 05:35	10.6	10.6	10.6	82	7.7	5	8	202	0.0	1015.6	9	0.000	0.0
20100625 05:40	10.6	10.6	10.6	82	7.6	3	8	202	0.0	1015.6	11	0.000	0.0
20100625 05:45	10.5	10.5	10.5	82	7.6	5	6	202	0.0	1015.7	13	0.000	0.0
20100625 05:50	10.4	10.4	10.4	82	7.5	3	6	202	0.0	1015.6	15	0.000	0.0
20100625 05:55	10.4	10.4	10.4	82	7.5	3	6	202	0.0	1015.6	18	0.000	0.0
20100625 06:00	10.4	10.4	10.4	83	7.6	3	6	202	0.0	1015.7	20	0.025	0.0
20100625 06:05	10.3	10.3	10.3	83	7.6	5	8	202	0.0	1015.5	22	0.000	0.0
20100625 06:10	10.3	10.3	10.3	83	7.6	5	8	202	0.0	1015.5	25	0.000	0.0
20100625 06:15	10.3	10.3	10.3	83	7.6	6	8	202	0.0	1015.5	27	0.000	0.0
20100625 06:20	10.3	10.3	10.3	83	7.6	6	8	202	0.0	1015.5	30	0.000	0.0
20100625 06:25	10.4	10.4	10.4	83	7.7	6	10	202	0.0	1015.4	33	0.000	0.0
20100625 06:30	10.5	10.5	10.5	83	7.7	6	10	202	0.0	1015.4	36	0.000	0.0
20100625 06:35	10.6	10.6	10.6	83	7.8	6	10	202	0.0	1015.4	40	0.000	0.0
20100625 06:40	10.7	10.7	10.7	83	7.9	5	8	202	0.0	1015.5	56	0.000	0.0
20100625 06:45	10.8	10.8	10.8	83	8.0	5	8	202	0.0	1015.5	121	0.000	0.0
20100625 06:50	11.1	11.1	11.1	83	8.3	3	6	202	0.0	1015.6	136	0.000	0.0
20100625 06:55	11.3	11.3	11.3	82	8.3	2	6	202	0.0	1015.5	152	0.000	0.0
20100625 07:00	11.6	11.6	11.6	82	8.6	3	8	202	0.0	1015.3	166	0.051	0.0
20100625 07:05	11.9	11.9	11.9	82	9.0	3	8	202	0.0	1015.6	178	0.000	0.0
20100625 07:10	12.3	12.3	12.3	82	9.3	2	6	202	0.0	1015.4	184	0.000	0.3
20100625 07:15	12.7	12.7	12.7	81	9.5	5	8	202	0.0	1015.5	209	0.000	0.5
20100625 07:20	13.0	13.0	13.0	80	9.6	5	8	202	0.0	1015.5	223	0.000	0.5
20100625 07:25	13.3	13.3	13.3	79	9.8	3	8	202	0.0	1015.4	235	0.000	0.6
20100625 07:30	13.7	13.7	13.7	79	10.1	5	6	202	0.0	1015.4	241	0.000	0.7
20100625 07:35	14.0	14.0	14.0	77	10.0	3	8	202	0.0	1015.4	255	0.000	0.7
20100625 07:40	14.3	14.3	14.3	76	10.2	5	10	202	0.0	1015.4	272	0.000	0.8
20100625 07:45	14.6	14.6	14.6	75	10.2	3	8	202	0.0	1015.3	282	0.000	0.8
20100625 07:50	14.9	14.9	14.9	74	10.3	5	10	202	0.0	1015.3	293	0.000	0.9
20100625 07:55	15.0	15.0	15.0	74	10.4	3	6	202	0.0	1015.3	304	0.000	1.0
20100625 08:00	15.4	15.4	15.4	72	10.4	5	8	202	0.0	1015.2	319	0.127	1.1
20100625 08:05	15.7	15.7	15.7	72	10.6	3	8	202	0.0	1015.3	334	0.000	1.2
20100625 08:10	15.9	15.9	15.9	71	10.6	5	8	202	0.0	1015.3	345	0.000	1.2
20100625 08:15	16.2	16.2	16.2	70	10.7	5	10	202	0.0	1015.3	359	0.000	1.3
20100625 08:20	16.4	16.4	16.4	70	11.0	6	10	225	0.0	1015.2	372	0.000	1.4
20100625 08:25	16.7	16.7	16.7	69	10.9	5	10	225	0.0	1015.2	385	0.000	1.5
20100625 08:30	16.9	16.9	16.9	66	10.5	6	11	225	0.0	1015.2	402	0.000	1.6
20100625 08:35	17.2	17.2	17.2	66	10.8	5	10	248	0.0	1015.2	417	0.000	1.7
20100625 08:40	17.4	17.4	17.4	65	10.8	5	10	248	0.0	1015.2	430	0.000	1.8
20100625 08:45	17.6	17.6	17.6	64	10.7	6	11	248	0.0	1015.1	444	0.000	1.9
20100625 08:50	17.8	17.8	17.8	64	10.9	5	10	248	0.0	1015.1	459	0.000	2.0
20100625 08:55	17.9	17.9	17.9	63	10.8	6	11	248	0.0	1015.1	473	0.000	2.1
20100625 09:00	18.1	18.1	18.1	63	11.0	5	10	248	0.0	1015.1	483	0.254	2.2
20100625 09:05	18.4	18.4	18.4	64	11.5	5	10	270	0.0	1015.3	494	0.000	2.3
20100625 09:10	18.6	18.6	18.6	62	11.2	6	10	270	0.0	1015.3	509	0.000	2.5
20100625 09:15	18.8	18.8	18.8	61	11.1	5	11	248	0.0	1015.2	520	0.000	2.6
20100625 09:20	19.0	19.0	19.0	60	11.1	5	10	270	0.0	1015.3	532	0.000	2.7
20100625 09:25	19.3	19.3	19.3	62	11.8	5	11	270	0.0	1015.3	543	0.000	2.8
20100625 09:30	19.5	19.5	19.5	61	11.8	5	10	270	0.0	1015.3	552	0.000	3.0
20100625 09:35	19.7	19.7	19.7	59	11.5	6	10	270	0.0	1015.3	561	0.000	3.1
20100625 09:40	19.8	19.8	19.8	57	11.0	8	11	270	0.0	1015.3	577	0.000	3.2
20100625 09:45	19.8	19.8	19.8	59	11.5	5	14	270	0.0	1015.2	591	0.000	3.4
20100625 09:50	19.9	19.9	19.9	58	11.4	5	11	248	0.0	1015.2	601	0.000	3.5
20100625 09:55	20.0	20.0	20.0	58	11.5	6	14	248	0.0	1015.2	615	0.000	3.7
20100625 10:00	20.1	20.1	20.1	58	11.6	6	11	248	0.0	1015.1	628	0.356	3.8
20100625 10:05	20.3	20.3	20.3	57	11.5	5	10	248	0.0	1015.2	642	0.000	4.0
20100625 10:10	20.5	20.5	20.5	57	11.7	6	11	248	0.0	1015.2	655	0.000	4.1
20100625 10:15	20.6	20.6	20.6	57	11.7	6	10	248	0.0	1015.2	663	0.000	4.3
20100625 10:20	20.7	20.7	20.7	55	11.3	6	11	270	0.0	1015.3	675	0.000	4.4
20100625 10:25	20.8	20.8	20.8	56	11.7	5	10	270	0.0	1015.2	683	0.000	4.5
20100625 10:30	21.0	21.0	21.0	58	12.4	3	8	292	0.0	1015.1	693	0.000	4.6
20100625 10:35	21.2	21.2	21.2	59	12.9	5	8	270	0.0	1015.1	701	0.000	4.8
20100625 10:40	21.5	21.5	21.5	55	12.1	5	10	270	0.0	1015.0	705	0.000	4.8
20100625 10:45	21.6	21.6	21.6	55	12.2	5	11	315	0.0	1015.0	720	0.000	5.0
20100625 10:50	21.6	21.6	21.6	55	12.2	5	10	292	0.0	1015.0	730	0.000	5.2
20100625 10:55	21.8	21.8	21.8	53	11.8	5	13	292	0.0	1015.0	740	0.000	5.3
20100625 11:00	21.8	21.8	21.8	56	12.7	5	11	292	0.0	1014.9	751	0.432	5.5
20100625 11:05	21.8	21.8	21.8	51	11.2	5	10	292	0.0	1015.0	760	0.000	5.7
20100625 11:10	22.0	22.0	22.0	55	12.5	6	10	270	0.0	1014.8	769	0.000	5.8
20100625 11:15	22.2	22.2	22.2	56	13.0	3	10	292	0.0	1014.9	773	0.000	5.9
20100625 11:20	22.4	22.4	22.4	55	12.9	3	18	315	0.0	1014.8	787	0.000	6.1
20100625 11:25	22.5	22.5	22.5	53	12.4	5	14	315	0.0	1014.8	796	0.000	6.2
20100625 11:30	22.6	22.6	22.6	55	13.1	5	11	315	0.0	1014.8	800	0.000	6.3
20100625 11:35	22.7	22.7	22.7	52	12.3	3	11	315	0.0	1014.7	812	0.000	6.5
20100625 11:40	22.7	22.7	22.7	51	12.0	6	11	270	0.0	1014.8	824	0.000	6.6
20100625 11:45	22.8	22.8	22.8	53	12.7	2	8	315	0.0	1014.8	818	0.000	6.6
20100625 11:50	23.1	23.1	23.1	53	13.0	2	5	315	0.0	1014.6	841	0.000	6.8
20100625 11:55	23.2	23.2	23.2	51	12.5	3	11	315	0.0	1014.6	857	0.000	6.9
20100625 12:00	23.3	23.3	23.3	51	12.6	6	13	292	0.0	1014.6	893	0.508	7.2
20100625 12:05	23.4	23.4	23.4	50	12.4	3	11	315	0.0	1014.7	865	0.000	7.0
20100625 12:10	23.6	23.6	23.6	49	12.2	2	6	315	0.0	1014.7	866	0.000	7.1
20100625 12:15	23.6	23.6	23.6	49	12.3	3	8	315	0.0	1014.6	884	0.000	7.0
20100625 12:20	23.6	23.6	23.6	49	12.3	6	16	315	0.0	1014.6	927	0.000	7.5
20100625 12:25	23.7	23.7	23.7	51	12.9	5	18	292	0.0	1014.6	926	0.000	7.7
20100625 12:30	23.8	23.8	23.8	48	12.1	3	13	315	0.0	1014.5	898	0.000	7.4
20100625 12:35	23.5	23.5	23.5	51	12.8	3	10	315	0.0	1014.5	905	0.000	6.9
20100625 12:40	23.7	23.7	23.7	49	12.4	5	8	315	0.0	1014.4	899	0.000	7.8
20100625 12:45	23.9	23.9	25.3	47	11.9	3	10	315	0.0	1014.4	890	0.000	7.8
20100625 12:50	24.1	24.1	25.4	50	13.0	2	8	270	0.0	1014.3	886	0.000	7.9
20100625 12:55	23.8	23.8	23.8	49	12.5	3	11	135	0.0	1014.3	883	0.000	7.9
20100625 13:00	23.8	23.8	23.8	46	11.5	8	19	270	0.0	1014.3	883	0.559	7.9
20100625 13:05	23.9	23.9	25.4	47	11.9	2	10	270	0.0	1014.3	884	0.000	7.9
20100625 13:10	24.1	24.1	25.4	46	11.8	5	11	315	0.0	1014.4	903	0.000	8.0
20100625 13:15	24.2	24.2	25.5	48	12.5	3	11	315	0.0	1014.2	949	0.000	8.2
20100625 13:20	24.2	24.2	25.5	47	12.2	5	18	315	0.0	1014.2	965	0.000	8.2
20100625 13:25	24.3	24.3	25.5	44	11.2	5	11	315	0.0	1014.2	977	0.000	8.3
20100625 13:30	24.4	24.4	25.5	45	11.7	5	11	292	0.0	1014.2	1012	0.000	8.1
20100625 13:35	24.4	24.4	25.5	45	11.7	6	11	292	0.0	1014.2	627	0.000	6.1
20100625 13:40	24.1	24.1	25.4	44	11.1	3	6	0	0.0	1014.2	661	0.000	5.6
20100625 13:45	23.7	23.7	23.7	48	12.0	2	10	22	0.0	1014.3	707	0.000	7.2
20100625 13:50	23.8	23.8	23.8	45	11.2	6	13	248	0.0	1014.3	920	0.000	7.9
20100625 13:55	24.1	24.1	25.4	46	11.8	6	11	292	0.0	1014.3	898	0.000	7.7
20100625 14:00	23.9	23.9	25.4	49	12.6	6	13	22	0.0	1014.2	897	0.559	7.5
20100625 14:05	23.9	23.9	25.4	45	11.3	3	6	22	0.0	1014.2	929	0.000	7.6
20100625 14:10	24.3	24.3	25.5	47	12.3	5	14	315	0.0	1014.1	915	0.000	7.3
20100625 14:15	24.5	24.5	25.6	47	12.4	3	10	338	0.0	1014.0	920	0.000	7.6
20100625 14:20	24.6	24.6	25.6	45	11.9	3	11	338	0.0	1014.1	919	0.000	7.4
20100625 14:25	24.7	24.7	25.6	45	11.9	2	6	270	0.0	1014.0	896	0.000	7.4
20100625 14:30	24.6	24.6	25.6	47	12.5	2	6	270	0.0	1013.9	877	0.000	7.3
20100625 14:35	24.8	24.8	25.8	50	13.6	2	8	270	0.0	1013.8	868	0.000	7.2
20100625 14:40	25.0	25.0	25.8	45	12.2	5	10	202	0.0	1013.8	871	0.000	7.2
20100625 14:45	25.2	25.2	25.8	43	11.7	6	14	292	0.0	1013.8	870	0.000	7.0
20100625 14:50	25.2	25.2	25.9	46	12.7	3	11	270	0.0	1013.8	862	0.000	6.8
20100625 14:55	25.2	25.2	25.9	44	12.0	2	11	315	0.0	1013.7	842	0.000	6.6
20100625 15:00	25.2	25.2	25.9	45	12.4	2	8	315	0.0	1013.7	835	0.584	6.5
20100625 15:05	25.2	25.2	25.9	44	12.0	5	8	315	0.0	1013.8	849	0.000	6.4
20100625 15:10	25.3	25.3	26.0	45	12.5	3	11	315	0.0	1013.5	865	0.000	6.2
20100625 15:15	25.3	25.3	25.9	45	12.5	6	11	248	0.0	1013.6	865	0.000	6.2
20100625 15:20	25.3	25.3	26.0	45	12.5	5	10	292	0.0	1013.6	867	0.000	6.0
20100625 15:25	25.6	25.6	26.1	45	12.7	3	10	270	0.0	1013.6	840	0.000	5.3
20100625 15:30	25.5	25.5	26.0	44	12.3	3	8	270	0.0	1013.5	728	0.000	4.8
20100625 15:35	25.4	25.4	26.0	46	12.9	3	8	292	0.0	1013.4	708	0.000	5.0
20100625 15:40	25.5	25.5	26.1	46	13.0	2	6	292	0.0	1013.4	795	0.000	5.4
20100625 15:45	25.3	25.3	26.0	47	13.2	5	11	22	0.0	1013.4	770	0.000	5.3
20100625 15:50	25.3	25.3	25.9	45	12.5	3	8	22	0.0	1013.4	666	0.000	5.0
20100625 15:55	25.2	25.2	25.9	47	13.0	5	10	22	0.0	1013.4	745	0.000	4.9
20100625 16:00	25.2	25.2	25.9	44	12.0	3	8	0	0.0	1013.5	718	0.508	4.6
20100625 16:05	24.9	24.9	25.8	47	12.8	2	6	22	0.0	1013.4	651	0.000	4.5
20100625 16:10	24.7	24.7	25.7	47	12.6	3	8	22	0.0	1013.3	642	0.000	4.4
20100625 16:15	24.5	24.5	25.6	46	12.1	5	8	45	0.0	1013.4	509	0.000	3.8
20100625 16:20	24.6	24.6	25.6	46	12.2	3	10	22	0.0	1013.3	410	0.000	3.4
20100625 16:25	24.8	24.8	25.7	44	11.7	5	10	315	0.0	1013.2	549	0.000	3.6
20100625 16:30	25.1	25.1	25.9	45	12.3	5	10	292	0.0	1013.2	666	0.000	4.0
20100625 16:35	25.4	25.4	26.0	43	11.9	2	10	292	0.0	1013.2	699	0.000	4.0
20100625 16:40	25.6	25.6	26.0	42	11.7	5	13	315	0.0	1013.2	672	0.000	3.8
20100625 16:45	25.8	25.8	26.3	46	13.3	3	8	292	0.0	1013.1	685	0.000	3.7
20100625 16:50	26.0	26.0	26.3	42	12.1	2	8	338	0.0	1013.0	630	0.000	3.5
20100625 16:55	26.1	26.1	26.4	43	12.5	2	11	315	0.0	1012.9	630	0.000	3.4
20100625 17:00	26.0	26.0	26.3	44	12.8	3	8	338	0.0	1012.8	589	0.406	3.1
20100625 17:05	25.9	25.9	26.3	43	12.4	2	5	338	0.0	1012.8	519	0.000	2.8
20100625 17:10	25.8	25.8	26.2	45	12.9	5	11	315	0.0	1012.7	505	0.000	2.7
20100625 17:15	25.9	25.9	26.3	45	13.1	0	5	315	0.0	1012.7	488	0.000	2.5
20100625 17:20	25.6	25.6	26.0	42	11.7	2	5	315	0.0	1012.8	415	0.000	2.2
20100625 17:25	25.1	25.1	25.8	43	11.6	3	6	315	0.0	1012.8	352	0.000	2.0
20100625 17:30	24.8	24.8	25.8	47	12.7	2	5	338	0.0	1012.8	280	0.000	1.8
20100625 17:35	24.7	24.7	25.7	46	12.3	6	10	315	0.0	1012.8	253	0.000	1.6
20100625 17:40	24.6	24.6	25.7	48	12.9	6	10	315	0.0	1012.8	273	0.000	1.5
20100625 17:45	24.6	24.6	25.6	47	12.5	6	14	292	0.0	1012.8	284	0.000	1.5
20100625 17:50	24.5	24.5	25.6	50	13.4	5	8	315	0.0	1012.8	251	0.000	1.4
20100625 17:55	24.3	24.3	25.5	50	13.2	5	11	315	0.0	1012.8	219	0.000	1.3
20100625 18:00	24.2	24.2	25.5	49	12.8	6	11	292	0.0	1012.8	208	0.254	1.2
20100625 18:05	24.0	24.0	25.4	51	13.2	6	11	315	0.0	1012.7	199	0.000	1.1
20100625 18:10	23.8	23.8	23.8	52	13.3	5	10	315	0.0	1012.6	184	0.000	1.0
20100625 18:15	23.6	23.6	23.6	53	13.5	5	10	315	0.0	1012.6	180	0.000	0.9
20100625 18:20	23.4	23.4	23.4	53	13.3	5	11	315	0.0	1012.7	186	0.000	0.9
20100625 18:25	23.4	23.4	23.4	55	13.8	3	6	315	0.0	1012.6	188	0.000	0.8
20100625 18:30	23.4	23.4	23.4	58	14.6	0	3	315	0.0	1012.6	188	0.000	0.8
20100625 18:35	23.4	23.4	23.4	59	14.9	0	3	315	0.0	1012.7	183	0.000	0.8
20100625 18:40	23.3	23.3	23.3	60	15.1	0	3	315	0.0	1012.7	178	0.000	0.7
20100625 18:45	23.3	23.3	23.3	59	14.8	0	3	315	0.0	1012.7	170	0.000	0.7
20100625 18:50	23.2	23.2	23.2	60	15.0	0	2	315	0.0	1012.7	159	0.000	0.6
20100625 18:55	23.2	23.2	23.2	61	15.2	0	0	-100000	0.0	1012.7	150	0.000	0.6
20100625 19:00	23.1	23.1	23.1	60	14.9	0	2	315	0.0	1012.7	141	0.127	0.5
20100625 19:05	23.1	23.1	23.1	60	14.9	0	5	315	0.0	1012.3	133	0.000	0.5
20100625 19:10	23.0	23.0	23.0	60	14.8	0	3	315	0.0	1012.5	124	0.000	0.3
20100625 19:15	22.9	22.9	22.9	60	14.7	0	2	315	0.0	1012.5	114	0.000	0.0
20100625 19:20	22.8	22.8	22.8	61	14.9	0	0	-100000	0.0	1012.5	107	0.000	0.0
20100625 19:25	22.7	22.7	22.7	61	14.8	0	2	315	0.0	1012.6	100	0.000	0.0
20100625 19:30	22.6	22.6	22.6	62	15.0	0	2	315	0.0	1012.6	94	0.000	0.0
20100625 19:35	22.5	22.5	22.5	61	14.6	0	2	315	0.0	1012.4	90	0.000	0.0
20100625 19:40	22.4	22.4	22.4	62	14.8	0	2	315	0.0	1012.5	87	0.000	0.0
20100625 19:45	22.4	22.4	22.4	61	14.5	0	0	-100000	0.0	1012.4	84	0.000	0.0
20100625 19:50	22.4	22.4	22.4	61	14.5	0	2	315	0.0	1012.5	82	0.000	0.0
20100625 19:55	22.4	22.4	22.4	59	14.0	0	2	315	0.0	1012.4	86	0.000	0.0
20100625 20:00	22.4	22.4	22.4	57	13.4	0	2	315	0.0	1012.5	89	0.076	0.0
20100625 20:05	22.4	22.4	22.4	56	13.2	0	0	-100000	0.0	1012.3	91	0.000	0.0
20100625 20:10	22.5	22.5	22.5	56	13.3	0	0	-100000	0.0	1012.2	92	0.000	0.0
20100625 20:15	22.6	22.6	22.6	55	13.1	0	0	-100000	0.0	1012.2	91	0.000	0.0
20100625 20:20	22.6	22.6	22.6	55	13.1	0	0	-100000	0.0	1012.3	81	0.000	0.0
20100625 20:25	22.6	22.6	22.6	54	12.8	0	0	-100000	0.0	1012.3	74	0.000	0.0
20100625 20:30	22.5	22.5	22.5	54	12.7	0	0	-100000	0.0	1012.4	66	0.000	0.0
20100625 20:35	22.4	22.4	22.4	52	12.1	0	0	-100000	0.0	1012.5	52	0.000	0.0
20100625 20:40	22.4	22.4	22.4	52	12.0	0	0	-100000	0.0	1012.5	39	0.000	0.0
20100625 20:45	22.3	22.3	22.3	54	12.5	0	0	-100000	0.0	1012.5	28	0.000	0.0
20100625 20:50	22.3	22.3	22.3	56	13.1	0	0	-100000	0.0	1012.5	22	0.000	0.0
20100625 20:55	22.2	22.2	22.2	57	13.3	0	0	-100000	0.0	1012.3	20	0.000	0.0
20100625 21:00	22.1	22.1	22.1	57	13.1	0	2	315	0.0	1012.3	14	0.051	0.0
20100625 21:05	21.9	21.9	21.9	59	13.6	0	3	315	0.0	1012.0	9	0.000	0.0
20100625 21:10	21.8	21.8	21.8	60	13.7	0	2	315	0.0	1012.1	2	0.000	0.0
20100625 21:15	21.8	21.8	21.8	60	13.7	0	2	315	0.0	1012.2	0	0.000	0.0
20100625 21:20	21.4	21.4	21.4	61	13.5	5	14	112	0.0	1012.5	0	0.000	0.0
20100625 21:25	20.7	20.7	20.7	67	14.4	8	21	22	0.0	1013.2	0	0.000	0.0
20100625 21:30	18.3	18.3	18.3	77	14.2	19	45	22	1.6	1014.0	0	0.000	0.0
20100625 21:35	15.9	15.9	15.9	80	12.5	26	50	22	4.0	1014.8	0	0.000	0.0
20100625 21:40	15.0	15.0	15.0	85	12.5	31	48	45	3.2	1014.8	0	0.000	0.0
20100625 21:45	14.7	14.7	14.7	86	12.3	23	45	68	1.8	1014.8	0	0.000	0.0
20100625 21:50	14.8	14.8	14.8	87	12.7	19	26	68	0.2	1014.8	0	0.000	0.0
20100625 21:55	14.9	14.9	14.9	89	13.1	16	24	68	0.6	1014.8	0	0.000	0.0
20100625 22:00	15.0	15.0	15.0	89	13.2	14	24	90	0.0	1014.7	0	0.051	0.0
20100625 22:05	15.0	15.0	15.0	90	13.4	13	23	68	0.2	1014.6	0	0.000	0.0
20100625 22:10	15.0	15.0	15.0	89	13.2	13	23	90	0.2	1014.6	0	0.000	0.0
20100625 22:15	15.0	15.0	15.0	89	13.2	13	21	90	0.4	1014.5	0	0.000	0.0
20100625 22:20	15.0	15.0	15.0	89	13.2	13	26	112	0.0	1014.3	0	0.000	0.0
20100625 22:25	14.9	14.9	14.9	89	13.1	13	24	112	0.2	1014.3	0	0.000	0.0
20100625 22:30	14.8	14.8	14.8	89	13.0	10	21	135	0.2	1014.4	0	0.000	0.0
20100625 22:35	14.7	14.7	14.7	88	12.8	11	21	112	0.2	1014.5	0	0.000	0.0
20100625 22:40	14.7	14.7	14.7	88	12.7	8	14	90	0.0	1014.8	0	0.000	0.0
20100625 22:45	14.6	14.6	14.6	88	12.6	6	16	90	0.2	1014.7	0	0.000	0.0
20100625 22:50	14.6	14.6	14.6	88	12.6	14	19	112	0.2	1014.5	0	0.000	0.0
20100625 22:55	14.6	14.6	14.6	87	12.4	16	21	112	0.0	1014.4	0	0.000	0.0
20100625 23:00	14.6	14.6	14.6	87	12.5	11	23	112	0.0	1014.3	0	0.025	0.0
20100625 23:05	14.6	14.6	14.6	87	12.4	10	19	135	0.0	1014.0	0	0.000	0.0
20100625 23:10	14.6	14.6	14.6	87	12.4	6	11	158	0.0	1013.9	0	0.000	0.0
20100625 23:15	14.6	14.6	14.6	88	12.6	6	14	158	0.0	1013.9	0	0.000	0.0
20100625 23:20	14.6	14.6	14.6	88	12.6	6	16	158	0.0	1014.0	0	0.000	0.0
20100625 23:25	14.6	14.6	14.6	88	12.6	3	8	158	0.0	1013.9	0	0.000	0.0
20100625 23:30	14.5	14.5	14.5	88	12.5	2	6	158	0.2	1014.0	0	0.000	0.0
20100625 23:35	14.5	14.5	14.5	89	12.7	2	5	158	0.0	1014.1	0	0.000	0.0
20100625 23:40	14.5	14.5	14.5	89	12.7	2	5	158	0.0	1014.2	0	0.000	0.0
20100625 23:45	14.5	14.5	14.5	89	12.7	2	10	158	0.0	1014.1	0	0.000	0.0
20100625 23:50	14.5	14.5	14.5	89	12.7	2	8	158	0.0	1014.1	0	0.000	0.0
20100625 23:55	14.5	14.5	14.5	88	12.5	0	5	158	0.0	1014.0	0	0.000	0.0



Please note the license to use and transfer of this data:
http://creativecommons.org/licenses/by-nc-sa/3.0/deed.en

Bitte beachten sie die Lizenz zur Verwertung und Weitergabe der Daten:
http://creativecommons.org/licenses/by-nc-sa/3.0/deed.de

zurück zur Übersicht der Archivdaten (Monats und Tagesdaten)

Cookies helfen bei der Bereitstellung von Inhalten. Durch die Nutzung dieser Seiten erklärst du dich damit einverstanden, dass Cookies auf deinem Rechner gespeichert werden. Weitere Information